Regional Weather Roundup
Issued by NWS

Home | Current Version | Previous Version | Graphics & Text | Print | Product List | Glossary On
Versions: 1 2 3 4 5 6 7 8 9 10 11 12 13 14 15 16 17 18 19 20 21 22 23 24 25 26 27
000
ASUS43 KDMX 241207
RWRIA

WEATHER ROUNDUP FOR IOWA
NATIONAL WEATHER SERVICE DES MOINES IA
700 AM CDT THU APR 24 2014

NOTE: "FAIR" INDICATES FEW OR NO CLOUDS BELOW 12,000 FEET WITH NO
SIGNIFICANT WEATHER AND/OR OBSTRUCTIONS TO VISIBILITY.

* - THESE STATIONS ARE NOT NWS STATIONS...THUS NOT UNDER NWS
QUALITY CONTROL.  THEY ALSO DO NOT REPORT WEATHER SUCH
AS PRECIPITATION OR FOG.

IAZ001>003-012>014-020>022-031>034-043>046-241300-
   NORTHWEST IOWA

CITY           SKY/WX    TMP DP  RH WIND       PRES   REMARKS
CARROLL *      CLOUDY    45  43  93 E6        29.61F
CHEROKEE *     CLOUDY    44  43  94 NE3       29.65S
DENISON *      MOCLDY    46  45  93 CALM      29.62R
LE MARS *        N/A     46  46 100 CALM      29.67R FOG
ORANGE CITY *  CLOUDY    46  43  87 E7        29.65S
SHELDON *      CLOUDY    43  43 100 E9        29.65R
SIOUX CITY     CLOUDY    48  45  89 CALM      29.65S
6HR MIN TEMP:  48; 6HR MAX TEMP:  52; 6HR PCP:  0.30;

SPENCER        CLOUDY    44  41  89 E8        29.66S
6HR MIN TEMP:  44; 6HR MAX TEMP:  48; 6HR PCP:  0.37;

STORM LAKE *   CLOUDY    43  43 100 E9        29.64R
$$

IAZ055>058-069>071-079>083-090>094-241300-
   SOUTHWEST IOWA

CITY           SKY/WX    TMP DP  RH WIND       PRES   REMARKS
ATLANTIC *     LGT RAIN  50  46  87 CALM      29.63R
AUDUBON *      DRIZZLE   46  39  76 CALM      29.62S
CLARINDA *     DRIZZLE   55  50  82 W6        29.64R
COUNCIL BLFS * RAIN      48  48 100 W6        29.67R
CRESTON *      CLOUDY    54  46  76 SE16      29.61F
HARLAN  *      DRIZZLE   46  45  93 CALM      29.67R
LAMONI         LGT RAIN  54  46  74 SE13      29.64F
6HR MIN TEMP:  54; 6HR MAX TEMP:  59; 6HR PCP:  0.02;

RED OAK *      LGT RAIN  52  48  87 W7G14     29.66R
SHENANDOAH *   LGT RAIN  50  48  93 W10       29.70R
$$

IAZ047>049-059>061-072>074-084-241300-
   CENTRAL IOWA

CITY           SKY/WX    TMP DP  RH WIND       PRES   REMARKS
AMES           CLOUDY    47  40  76 SE15G25   29.63F
6HR MIN TEMP:  46; 6HR MAX TEMP:  47; 6HR PCP:  0.09;

ANKENY *       MOCLDY    50  43  76 SE17G25   29.63F
CHARITON *     CLOUDY    52  45  76 SE16      29.66F
DES MOINES     CLOUDY    51  42  71 SE17      29.64F
6HR MIN TEMP:  50; 6HR MAX TEMP:  53; 6HR PCP:  0.13;

GRINNELL*      RAIN      46  39  76 SE14      29.71S
KNOXVILLE *    CLOUDY    48  41  76 SE16G25   29.66F
MARSHALLTOWN   CLOUDY    46  39  76 SE24G32   29.67F
6HR MIN TEMP:  45; 6HR MAX TEMP:  47; 6HR PCP:  0.13;

NEWTON *       CLOUDY    46  41  81 SE18G26   29.68F
PELLA *        RAIN      48  42  79 SE17      29.70F
PERRY *        MOCLDY    50  43  76 SE8       29.62R
$$

IAZ004>006-015-016-023>025-035-036-241300-
   NORTH CENTRAL IOWA

CITY           SKY/WX    TMP DP  RH WIND       PRES   REMARKS
ALGONA *       CLOUDY    45  41  87 E18       29.68F
CLARION *      CLOUDY    45  41  87 E13       29.68S
ESTHERVILLE    CLOUDY    42  42 100 E14       29.65F FOG
6HR MIN TEMP:  42; 6HR MAX TEMP:  44; 6HR PCP:  0.26;

FORT DODGE *   CLOUDY    45  39  81 E9        29.67S
MASON CITY     CLOUDY    42  39  89 E17       29.75F
6HR MIN TEMP:  42; 6HR MAX TEMP:  44; 6HR PCP:  0.67;

FOREST CITY *  CLOUDY    41  41 100 E16G24    29.70F
IOWA FALLS *   CLOUDY    45  41  87 E14G22    29.69F
$$

IAZ007>011-017>019-026>030-037>042-050>054-066-241300-
   NORTHEAST IOWA

CITY           SKY/WX    TMP DP  RH WIND       PRES   REMARKS
CEDAR RAPIDS   MOCLDY    47  37  68 SE16      29.77F
6HR MIN TEMP:  44; 6HR MAX TEMP:  47;

CHARLES CITY * LGT RAIN  41  37  87 E23       29.76F
CLINTON *      CLOUDY    45  36  70 SE17      29.90R
DECORAH *      LGT RAIN  41  39  93 E22G29    29.80F
DUBUQUE        RAIN      43  34  70 E20G26    29.85S
6HR MIN TEMP:  42; 6HR MAX TEMP:  44; 6HR PCP:  0.01;

MONTICELLO *   MOCLDY    45  36  70 SE23G30   29.80F
OELWEIN *      CLOUDY   N/A N/A N/A SE20      29.77F
WATERLOO       LGT RAIN  44  38  79 SE18G28   29.73F
6HR MIN TEMP:  43; 6HR MAX TEMP:  46; 6HR PCP:  0.07;

$$

IAZ064-065-067-068-078-241300-
   EAST CENTRAL IOWA

CITY           SKY/WX    TMP DP  RH WIND       PRES   REMARKS
DAVENPORT      CLOUDY    46  37  71 SE22      29.85F
6HR MIN TEMP:  43; 6HR MAX TEMP:  47;

IOWA CITY      MOCLDY    49  38  65 SE18G26   29.80F
6HR MIN TEMP:  47; 6HR MAX TEMP:  49;

MT. PLEASANT * MOCLDY    51  33  48 SE17      29.80F
MUSCATINE *    CLOUDY    50  37  62 SE12G22   29.83R
QUAD CITIES    MOCLDY    46  38  73 E10       29.86F
6HR MIN TEMP:  44; 6HR MAX TEMP:  47;

$$

IAZ062-063-075>077-085>089-095>099-241300-
   SOUTHEAST IOWA

CITY           SKY/WX    TMP DP  RH WIND       PRES   REMARKS
BURLINGTON     CLOUDY    51  34  52 SE17G24   29.81F
6HR MIN TEMP:  49; 6HR MAX TEMP:  53;

FAIRFIELD *    MOCLDY    52  34  50 SE21G30   29.78R
FORT MADISON * CLEAR     54  34  47 SE13G22   29.81S
KEOKUK *       CLEAR     52  36  54 SE12G20   29.80R
OSKALOOSA *    CLOUDY    48  40  74 SE16      29.73F
CENTERVILLE *  MOCLDY    50  43  76 SE13      29.72F
OTTUMWA        LGT RAIN  49  39  68 SE18      29.73F
6HR MIN TEMP:  47; 6HR MAX TEMP:  52; 6HR PCP:  0.13;

WASHINGTON *   PTCLDY    50  37  62 SE17      29.78S
$$

ABBREVIATIONS USED IN REMARKS
   TC - TEMPERATURES IN CELSIUS
  WCI - WIND CHILL INDEX
   HX - HEAT INDEX
  VSB - VISIBILITY
$$




USA.gov is the U.S. government's official web portal to all federal, state and local government web resources and services.